Location: D.A.R.C. Observatory
(36.7133°N, 120.8553°W)
Time: 12:17:39
(UTC-07:00)

Daily predictions for brighter satellites

Satellite Brightness Start Highest point End
(mag) Time Altitude Azimuth Time Altitude Azimuth Time Altitude Azimuth
NOSS 3-3 (A) 4.0 20:00:49 10° SSW 20:06:36 58° ESE 20:12:52 10° NE
NOSS 3-3 (C) 4.0 20:00:57 10° SSW 20:06:42 57° ESE 20:12:58 10° NE
Cosmos 494 Rocket 4.0 20:02:11 10° NNW 20:07:25 82° ENE 20:12:39 10° SSE
Cosmos 1666 Rocket 4.3 20:05:59 10° NNE 20:10:03 33° ENE 20:14:04 10° SE
USA 186 2.8 20:12:21 10° ESE 20:13:47 15° ENE 20:15:15 10° NNE
ERS-2 2.8 20:11:00 10° SE 20:14:22 36° ENE 20:17:46 10° N
Cosmos 1455 3.2 20:12:19 10° SSE 20:15:33 27° E 20:18:50 10° NNE
CZ-2D R/B 3.3 20:12:19 10° SSE 20:16:03 58° ENE 20:19:48 10° N
Cosmos 1151 Rocket 4.5 20:14:21 10° SE 20:17:10 17° E 20:20:00 10° NE
Cosmos 2074 Rocket 4.4 20:12:48 10° SSW 20:19:04 72° W 20:25:22 10° N
Sich 1 3.3 20:15:49 10° N 20:19:56 47° E 20:24:03 10° SSE
Cosmos 2333 Rocket 2.3 20:14:36 10° S 20:20:06 53° ESE 20:25:35 10° NNE
ATLAS 2A CENTAUR R/B 4.2 20:15:20 10° WSW 20:21:18 21° SSW 20:23:55 10° SSE
COSMOS 2428 2.9 20:19:29 10° SSW 20:25:13 79° WNW 20:30:59 10° NNE
Cosmos 1892 3.2 20:22:00 10° N 20:25:42 42° E 20:29:22 10° SSE
Cosmos 1844 Rocket 2.7 20:20:03 10° NNW 20:25:43 70° ENE 20:31:20 10° SSE
Cosmos 1610 Rocket 4.5 20:20:01 10° S 20:26:08 86° E 20:32:19 10° N
YAOGAN 6 3.3 20:23:29 10° SE 20:26:46 35° ENE 20:30:07 10° N
Cosmos 1809 Rocket 4.5 20:23:50 10° S 20:29:58 82° E 20:36:11 10° N
Envisat 3.0 20:25:15 10° SSE 20:30:20 84° ENE 20:35:26 10° N
Cosmos 2251 Rocket 3.5 20:27:15 10° NNW 20:32:39 76° ENE 20:37:59 10° SSE
Cosmos 1844 3.8 20:27:09 10° NNW 20:32:48 61° ENE 20:38:28 10° SSE
Cosmos 2219 Rocket 2.2 20:28:37 10° SSW 20:34:16 85° ESE 20:39:57 10° NNE
Cosmos 2237 Rocket 2.6 20:31:19 10° S 20:36:30 40° ESE 20:41:44 10° NE
Meteor 2-2 Rocket 4.3 20:30:46 10° S 20:36:35 80° E 20:42:33 10° N
Genesis I 4.5 20:34:03 10° N 20:37:36 28° NE 20:40:01 16° ESE
Cosmos 1633 Rocket 3.0 20:37:47 10° N 20:42:06 64° E 20:46:25 10° SSE
Meteor 2-14 Rocket 4.4 20:40:10 10° S 20:46:15 83° E 20:52:23 10° N
Cosmos 1340 4.0 20:43:59 10° SSW 20:47:36 43° WNW 20:51:15 10° N
Cosmos 2278 Rocket 3.0 20:43:15 10° N 20:48:25 35° ENE 20:51:44 19° ESE
Cosmos 2098 Rocket 4.3 20:47:46 19° ESE 20:49:19 22° E 20:52:32 10° NE
Cosmos 1515 Rocket 3.8 20:46:38 10° SSE 20:50:53 47° E 20:55:10 10° NNE
Nadezhda 3 Rocket 4.1 20:46:02 10° N 20:52:23 89° WSW 20:58:44 10° S
Meteor 2-15 Rocket 4.5 20:49:01 10° N 20:55:11 85° W 21:01:18 10° S
Cosmos 2228 Rocket 3.1 20:52:02 10° S 20:56:18 54° E 21:00:36 10° NNE
Meteor 2-16 Rocket 4.4 20:50:15 10° S 20:56:22 82° E 21:02:31 10° N
ASTRO E2 4.0 20:57:33 10° SW 21:00:42 22° SSE 21:00:58 22° SSE
Thor Agena Rocket 4.3 20:58:52 10° N 21:04:01 58° WNW 21:09:11 10° SSW
Cosmos 1825 2.9 21:00:36 10° NNE 21:04:04 33° E 21:04:40 31° E
SL-24 R/B - RUBIN 2 4.4 21:02:12 10° NW 21:06:21 45° WSW 21:09:49 14° S
Sakura Rocket 3.9 21:03:46 10° WSW 21:07:45 27° S 21:08:34 25° SSE
Cosmos 1328 Rocket 3.9 21:05:09 10° SSW 21:09:31 68° W 21:13:57 10° N
OAO 2 Rocket 3.8 21:05:23 10° W 21:10:24 48° SSW 21:12:37 29° SE
ATLAS CENTAUR R/B 2.6 21:07:21 10° SW 21:10:46 38° NW 21:14:20 10° NNE
Spot 2 Rocket 3.4 21:09:25 19° SSE 21:13:10 81° ENE 21:18:16 10° N
SL-8 R/B 4.2 21:10:32 10° WSW 21:15:16 61° NNW 21:20:02 10° NE
BREEZE-M DEB (TANK) 4.2 21:15:14 10° NNW 21:17:14 16° NNE 21:17:44 15° NNE
Resurs 01 Rocket 2.1 21:17:10 14° S 21:20:53 58° W 21:25:16 10° NNW
ATLAS 2AS CENTAUR R/B 2.9 21:15:01 10° NNW 21:22:54 89° ENE 21:27:11 28° SSE
CZ-4B DEB 4.5 21:23:47 58° E 21:23:55 59° ENE 21:27:22 10° N
GEOS 3 Rocket 4.2 21:20:20 10° NE 21:24:42 35° ESE 21:24:42 35° ESE
Cosmos 1470 Rocket 3.6 21:20:57 10° N 21:25:22 80° W 21:27:42 28° S
SL-16 R/B 2.5 21:24:48 32° SSE 21:26:45 42° ESE 21:32:03 10° NE
Cosmos 1939 Rocket 4.3 21:24:54 11° SSW 21:28:14 35° W 21:31:49 10° NNW
OAO 3 Copernicus 4.5 21:25:10 10° SW 21:29:59 48° SSE 21:30:35 45° SE
ARGOS 3.5 21:29:47 39° ESE 21:31:05 47° ENE 21:36:13 10° N
Cosmos 1869 3.2 21:30:46 45° S 21:31:56 83° E 21:35:58 10° N
SL-08 RB Rocket 4.4 21:34:41 35° ENE 21:34:41 35° ENE 21:38:38 10° N
Cosmos 1959 Rocket 4.4 21:30:45 10° S 21:36:56 89° W 21:43:05 10° N
ATLAS 2A CENTAUR R/B 4.1 21:23:43 10° SW 21:41:21 41° S 21:44:51 33° SE
Cosmos 1727 Rocket 4.0 21:35:16 10° N 21:41:22 58° E 21:42:59 45° SE
Meteor 2-10 Rocket 3.6 21:42:55 28° S 21:46:02 82° E 21:51:52 10° N
Cosmos 1408 3.3 21:42:59 10° NNW 21:46:33 50° W 21:47:03 46° WSW
ERS-1 Rocket 3.2 21:50:08 48° ENE 21:50:09 48° ENE 21:54:59 10° N
NOSS 3-4 (A) 4.2 21:46:23 10° NNW 21:53:16 50° NE 21:55:21 40° E
NOSS 3-4 (C) 4.2 21:46:30 10° NNW 21:53:22 50° NE 21:55:26 40° E
USA 81 4.0 21:48:16 10° N 21:53:31 63° E 21:53:44 62° E
Cosmos 2218 Rocket 4.4 21:48:22 10° SSW 21:54:39 64° W 22:01:01 10° N
Cosmos 407 Rocket 3.5 21:49:40 10° N 21:54:43 56° ENE 21:54:44 56° ENE
H-2A R/B 1.9 21:57:48 65° E 21:57:52 65° ENE 22:02:49 10° N
Cosmos 2344 3.5 21:51:40 10° SSW 21:59:09 56° ESE 22:06:53 10° NE
Cosmos 2297 3.9 21:55:31 10° NNW 22:01:04 54° ENE 22:01:18 53° ENE
USA 267 3.2 21:57:11 10° NE 22:03:38 59° SE 22:10:03 10° SSW
Cosmos 2369 Rocket 4.3 22:04:36 10° NNE 22:07:02 13° NE 22:07:06 13° NE
MetOp-A 4.3 22:14:03 60° SW 22:14:45 66° WSW 22:20:05 10° NNW
Cosmos 1869 Rocket 4.3 22:12:03 10° N 22:15:15 48° N 22:15:15 48° N
Helios 1A 4.3 22:21:58 35° N 22:21:58 35° N 22:24:31 10° N
Cosmos 2237 Rocket 4.3 22:16:03 10° WSW 22:20:40 26° WNW 22:25:18 10° N
Cosmos 1452 Rocket 4.4 22:26:09 39° NNE 22:26:09 39° NNE 22:29:25 10° NNE
Terra 3.6 22:27:10 23° NNE 22:27:10 23° NNE 22:29:23 10° N
CZ-4C R/B 4.1 22:29:46 17° NE 22:29:46 17° NE 22:31:08 10° NE
Cosmos 2278 Rocket 3.6 22:27:30 10° NW 22:32:20 29° WSW 22:33:36 26° SW
ATLAS 5 CENTAUR R/B 4.2 22:31:11 10° N 22:35:11 18° NE 22:35:41 18° NE
SPOT 5 4.1 22:47:02 36° NNW 22:47:02 36° NNW 22:49:43 10° NNW
Centaur D-1A AC-31 3.8 22:42:34 10° WSW 22:46:00 19° SW 22:46:00 19° SW
Cosmos 1140 Rocket 4.4 22:43:35 10° NNW 22:47:10 45° NNW 22:47:10 45° NNW
Lacrosse 5 4.1 22:45:44 10° N 22:48:54 17° NNE 22:48:54 17° NNE
Cosmos 1934 Rocket 4.5 23:02:01 53° N 23:02:01 53° N 23:06:32 10° N
SL-16 R/B 4.2 23:06:24 10° WSW 23:10:59 25° WNW 23:15:35 10° N
BREEZE-M DEB (TANK) 4.2 22:56:30 10° WNW 23:19:03 72° NNE 23:19:22 71° NE
Cosmos 1943 Rocket 3.9 23:14:55 10° N 23:17:39 24° NNE 23:17:39 24° NNE
USA 267 4.4 23:40:26 10° NNE 23:46:24 40° NW 23:52:22 10° W
Cosmos 2369 Rocket 3.9 23:46:09 10° NNW 23:48:53 30° NNW 23:48:53 30° NNW
